Time,TemperatureF,DewpointF,PressureIn,WindDirection,WindDirectionDegrees,WindSpeedMPH,WindSpeedGustMPH,Humidity,HourlyPrecipIn,Conditions,Clouds,dailyrainin,SoftwareType,DateUTC
2013-03-22 00:00:00,46.0,37.8,29.83,North,-999,0.0,0.0,73,0.00,,,-99.99,WeatherLink 5.7,2013-03-22 04:00:00,
2013-03-22 00:15:00,45.7,37.5,29.84,North,-999,0.0,0.0,73,0.00,,,-99.99,WeatherLink 5.7,2013-03-22 04:15:00,
2013-03-22 00:30:00,45.5,37.7,29.83,North,-999,0.0,0.0,74,0.00,,,-99.99,WeatherLink 5.7,2013-03-22 04:30:00,
2013-03-22 00:45:00,45.4,38.3,29.83,North,-999,0.0,0.0,76,0.00,,,-99.99,WeatherLink 5.7,2013-03-22 04:45:00,
2013-03-22 01:00:00,45.6,38.5,29.83,North,-999,0.0,0.0,76,0.00,,,-99.99,WeatherLink 5.7,2013-03-22 05:00:00,
2013-03-22 01:15:00,45.6,38.1,29.83,North,-999,0.0,0.0,75,0.00,,,-99.99,WeatherLink 5.7,2013-03-22 05:15:00,
2013-03-22 01:30:00,45.3,38.5,29.82,North,-999,0.0,0.0,77,0.00,,,-99.99,WeatherLink 5.7,2013-03-22 05:30:00,
2013-03-22 01:45:00,45.1,38.3,29.82,North,-999,0.0,0.0,77,0.00,,,-99.99,WeatherLink 5.7,2013-03-22 05:45:00,
2013-03-22 02:00:00,45.0,38.6,29.82,North,-999,0.0,0.0,78,0.00,,,-99.99,WeatherLink 5.7,2013-03-22 06:00:00,
2013-03-22 02:15:00,44.8,38.4,29.81,North,-999,0.0,0.0,78,0.00,,,-99.99,WeatherLink 5.7,2013-03-22 06:15:00,
2013-03-22 02:30:00,44.6,38.5,29.82,North,-999,0.0,0.0,79,0.00,,,-99.99,WeatherLink 5.7,2013-03-22 06:30:00,
2013-03-22 02:45:00,44.6,38.5,29.82,North,-999,0.0,0.0,79,0.00,,,-99.99,WeatherLink 5.7,2013-03-22 06:45:00,
2013-03-22 03:00:00,44.6,38.8,29.81,North,-999,0.0,0.0,80,0.00,,,-99.99,WeatherLink 5.7,2013-03-22 07:00:00,
2013-03-22 03:15:00,44.8,39.0,29.82,North,-999,0.0,0.0,80,0.00,,,-99.99,WeatherLink 5.7,2013-03-22 07:15:00,
2013-03-22 03:30:00,44.8,38.7,29.82,North,-999,0.0,0.0,79,0.00,,,-99.99,WeatherLink 5.7,2013-03-22 07:30:00,
2013-03-22 03:45:00,44.5,39.0,29.82,North,-999,0.0,0.0,81,0.00,,,-99.99,WeatherLink 5.7,2013-03-22 07:45:00,
2013-03-22 04:00:00,44.5,39.3,29.82,North,-999,0.0,0.0,82,0.00,,,-99.99,WeatherLink 5.7,2013-03-22 08:00:00,
2013-03-22 04:15:00,44.6,39.4,29.81,North,-999,0.0,0.0,82,0.00,,,-99.99,WeatherLink 5.7,2013-03-22 08:15:00,
2013-03-22 04:30:00,44.8,39.6,29.81,North,-999,0.0,0.0,82,0.00,,,-99.99,WeatherLink 5.7,2013-03-22 08:30:00,
2013-03-22 04:45:00,44.9,39.7,29.82,North,-999,0.0,0.0,82,0.00,,,-99.99,WeatherLink 5.7,2013-03-22 08:45:00,
2013-03-22 05:00:00,45.0,39.5,29.82,North,-999,0.0,0.0,81,0.00,,,-99.99,WeatherLink 5.7,2013-03-22 09:00:00,
2013-03-22 05:15:00,45.2,40.0,29.82,North,-999,0.0,0.0,82,0.00,,,-99.99,WeatherLink 5.7,2013-03-22 09:15:00,
2013-03-22 05:30:00,45.2,40.3,29.83,North,-999,0.0,0.0,83,0.00,,,-99.99,WeatherLink 5.7,2013-03-22 09:30:00,
2013-03-22 05:45:00,45.4,40.5,29.83,North,-999,0.0,0.0,83,0.00,,,-99.99,WeatherLink 5.7,2013-03-22 09:45:00,
2013-03-22 06:00:00,45.5,40.6,29.83,North,-999,0.0,0.0,83,0.00,,,-99.99,WeatherLink 5.7,2013-03-22 10:00:00,
2013-03-22 06:15:00,45.5,40.6,29.83,North,-999,0.0,0.0,83,0.00,,,-99.99,WeatherLink 5.7,2013-03-22 10:15:00,
2013-03-22 06:30:00,45.8,41.2,29.84,North,-999,0.0,0.0,84,0.00,,,-99.99,WeatherLink 5.7,2013-03-22 10:30:00,
2013-03-22 06:45:00,46.3,41.7,29.86,North,-999,0.0,0.0,84,0.00,,,-99.99,WeatherLink 5.7,2013-03-22 10:45:00,
2013-03-22 07:00:00,47.0,42.4,29.86,North,-999,0.0,0.0,84,0.00,,,-99.99,WeatherLink 5.7,2013-03-22 11:00:00,
2013-03-22 07:15:00,47.4,42.5,29.86,North,-999,0.0,0.0,83,0.00,,,-99.99,WeatherLink 5.7,2013-03-22 11:15:00,
2013-03-22 07:30:00,47.4,42.5,29.88,North,-999,0.0,0.0,83,0.00,,,-99.99,WeatherLink 5.7,2013-03-22 11:30:00,
2013-03-22 07:45:00,47.3,42.4,29.87,North,-999,0.0,0.0,83,0.00,,,-99.99,WeatherLink 5.7,2013-03-22 11:45:00,
2013-03-22 08:00:00,47.3,42.7,29.87,North,-999,0.0,0.0,84,0.00,,,-99.99,WeatherLink 5.7,2013-03-22 12:00:00,
2013-03-22 08:15:00,48.0,43.4,29.87,North,-999,0.0,0.0,84,0.00,,,-99.99,WeatherLink 5.7,2013-03-22 12:15:00,
2013-03-22 08:30:00,49.2,43.9,29.87,North,0,0.0,3.0,82,0.00,,,-99.99,WeatherLink 5.7,2013-03-22 12:30:00,
2013-03-22 08:45:00,50.5,44.9,29.88,North,-999,0.0,0.0,81,0.00,,,-99.99,WeatherLink 5.7,2013-03-22 12:45:00,
2013-03-22 09:00:00,51.6,45.3,29.88,North,-999,0.0,0.0,79,0.01,,,-99.99,WeatherLink 5.7,2013-03-22 13:00:00,
2013-03-22 09:15:00,53.2,45.1,29.89,North,0,0.0,2.0,74,0.01,,,-99.99,WeatherLink 5.7,2013-03-22 13:15:00,
2013-03-22 09:30:00,55.2,46.0,29.90,North,0,0.0,5.0,71,0.01,,,-99.99,WeatherLink 5.7,2013-03-22 13:30:00,
2013-03-22 09:45:00,56.4,46.0,29.90,North,0,0.0,3.0,68,0.01,,,-99.99,WeatherLink 5.7,2013-03-22 13:45:00,
2013-03-22 10:00:00,57.6,46.3,29.90,North,0,0.0,6.0,66,0.00,,,-99.99,WeatherLink 5.7,2013-03-22 14:00:00,
2013-03-22 10:15:00,59.2,45.3,29.88,North,0,0.0,12.0,60,0.00,,,-99.99,WeatherLink 5.7,2013-03-22 14:15:00,
2013-03-22 10:30:00,60.3,45.5,29.88,North,0,1.0,9.0,58,0.00,,,-99.99,WeatherLink 5.7,2013-03-22 14:30:00,
2013-03-22 10:45:00,62.0,46.1,29.89,North,0,0.0,6.0,56,0.00,,,-99.99,WeatherLink 5.7,2013-03-22 14:45:00,
2013-03-22 11:00:00,63.1,45.2,29.90,North,0,0.0,6.0,52,0.00,,,-99.99,WeatherLink 5.7,2013-03-22 15:00:00,
2013-03-22 11:15:00,64.5,45.4,29.89,North,-999,0.0,0.0,50,0.00,,,-99.99,WeatherLink 5.7,2013-03-22 15:15:00,
2013-03-22 11:30:00,66.8,45.3,29.90,North,0,0.0,5.0,46,0.00,,,-99.99,WeatherLink 5.7,2013-03-22 15:30:00,
2013-03-22 11:45:00,68.5,45.7,29.89,North,0,0.0,7.0,44,0.00,,,-99.99,WeatherLink 5.7,2013-03-22 15:45:00,
2013-03-22 12:00:00,70.1,45.9,29.88,North,0,0.0,7.0,42,0.00,,,-99.99,WeatherLink 5.7,2013-03-22 16:00:00,
2013-03-22 12:15:00,70.9,46.7,29.88,North,0,0.0,9.0,42,0.00,,,-99.99,WeatherLink 5.7,2013-03-22 16:15:00,
2013-03-22 12:30:00,71.8,49.3,29.88,North,0,1.0,10.0,45,0.00,,,-99.99,WeatherLink 5.7,2013-03-22 16:30:00,
2013-03-22 12:45:00,73.2,49.4,29.87,North,0,1.0,16.0,43,0.00,,,-99.99,WeatherLink 5.7,2013-03-22 16:45:00,
2013-03-22 13:00:00,74.0,50.1,29.86,North,0,2.0,11.0,43,0.00,,,-99.99,WeatherLink 5.7,2013-03-22 17:00:00,
2013-03-22 13:15:00,74.0,50.1,29.85,North,0,3.0,14.0,43,0.00,,,-99.99,WeatherLink 5.7,2013-03-22 17:15:00,
2013-03-22 13:30:00,73.8,49.3,29.84,North,0,1.0,11.0,42,0.00,,,-99.99,WeatherLink 5.7,2013-03-22 17:30:00,
2013-03-22 13:45:00,73.4,49.5,29.83,North,0,1.0,12.0,43,0.00,,,-99.99,WeatherLink 5.7,2013-03-22 17:45:00,
2013-03-22 14:00:00,73.6,50.9,29.83,North,0,1.0,11.0,45,0.00,,,-99.99,WeatherLink 5.7,2013-03-22 18:00:00,
2013-03-22 14:15:00,74.4,52.3,29.82,North,0,0.0,9.0,46,0.00,,,-99.99,WeatherLink 5.7,2013-03-22 18:15:00,
2013-03-22 14:30:00,75.3,52.5,29.82,North,0,0.0,9.0,45,0.00,,,-99.99,WeatherLink 5.7,2013-03-22 18:30:00,
2013-03-22 14:45:00,75.6,53.4,29.82,North,0,0.0,1.0,46,0.00,,,-99.99,WeatherLink 5.7,2013-03-22 18:45:00,
2013-03-22 15:00:00,75.8,53.5,29.81,North,0,0.0,5.0,46,0.00,,,-99.99,WeatherLink 5.7,2013-03-22 19:00:00,
2013-03-22 15:15:00,75.8,54.7,29.80,North,0,0.0,1.0,48,0.00,,,-99.99,WeatherLink 5.7,2013-03-22 19:15:00,
2013-03-22 15:30:00,76.0,55.5,29.80,North,-999,0.0,0.0,49,0.00,,,-99.99,WeatherLink 5.7,2013-03-22 19:30:00,
2013-03-22 15:45:00,75.9,56.5,29.80,North,-999,0.0,0.0,51,0.00,,,-99.99,WeatherLink 5.7,2013-03-22 19:45:00,
2013-03-22 16:00:00,75.4,56.0,29.80,North,-999,0.0,0.0,51,0.00,,,-99.99,WeatherLink 5.7,2013-03-22 20:00:00,
2013-03-22 16:15:00,74.7,56.4,29.80,North,-999,0.0,0.0,53,0.00,,,-99.99,WeatherLink 5.7,2013-03-22 20:15:00,
2013-03-22 16:30:00,74.5,58.3,29.80,North,0,0.0,3.0,57,0.00,,,-99.99,WeatherLink 5.7,2013-03-22 20:30:00,
2013-03-22 16:45:00,75.0,58.7,29.80,North,0,0.0,3.0,57,0.00,,,-99.99,WeatherLink 5.7,2013-03-22 20:45:00,
2013-03-22 17:00:00,75.6,59.3,29.80,North,-999,0.0,0.0,57,0.00,,,-99.99,WeatherLink 5.7,2013-03-22 21:00:00,
2013-03-22 17:15:00,75.8,60.0,29.80,North,-999,0.0,0.0,58,0.00,,,-99.99,WeatherLink 5.7,2013-03-22 21:15:00,
2013-03-22 17:30:00,75.5,59.7,29.81,North,-999,0.0,0.0,58,0.00,,,-99.99,WeatherLink 5.7,2013-03-22 21:30:00,
2013-03-22 17:45:00,75.2,59.9,29.80,North,-999,0.0,0.0,59,0.00,,,-99.99,WeatherLink 5.7,2013-03-22 21:45:00,
2013-03-22 18:00:00,74.7,59.9,29.81,North,-999,0.0,0.0,60,0.00,,,-99.99,WeatherLink 5.7,2013-03-22 22:00:00,
2013-03-22 18:15:00,74.4,59.6,29.81,North,-999,0.0,0.0,60,0.00,,,-99.99,WeatherLink 5.7,2013-03-22 22:15:00,
2013-03-22 18:30:00,74.0,59.7,29.80,North,-999,0.0,0.0,61,0.00,,,-99.99,WeatherLink 5.7,2013-03-22 22:30:00,
2013-03-22 18:45:00,73.8,60.0,29.81,North,-999,0.0,0.0,62,0.00,,,-99.99,WeatherLink 5.7,2013-03-22 22:45:00,
2013-03-22 19:00:00,73.5,61.0,29.82,North,-999,0.0,0.0,65,0.01,,,-99.99,WeatherLink 5.7,2013-03-22 23:00:00,
2013-03-22 19:15:00,73.0,62.2,29.82,North,-999,0.0,0.0,69,0.02,,,-99.99,WeatherLink 5.7,2013-03-22 23:15:00,
2013-03-22 19:30:00,72.3,62.8,29.82,North,-999,0.0,0.0,72,0.02,,,-99.99,WeatherLink 5.7,2013-03-22 23:30:00,
2013-03-22 19:45:00,71.6,62.1,29.81,North,-999,0.0,0.0,72,0.02,,,-99.99,WeatherLink 5.7,2013-03-22 23:45:00,
2013-03-22 20:00:00,71.0,62.7,29.82,North,-999,0.0,0.0,75,0.02,,,-99.99,WeatherLink 5.7,2013-03-23 00:00:00,
2013-03-22 20:15:00,70.6,62.7,29.85,North,0,0.0,6.0,76,0.72,,,-99.99,WeatherLink 5.7,2013-03-23 00:15:00,
2013-03-22 20:30:00,70.1,62.9,29.84,North,0,0.0,1.0,78,0.81,,,-99.99,WeatherLink 5.7,2013-03-23 00:30:00,
2013-03-22 20:45:00,69.6,62.8,29.85,North,0,0.0,1.0,79,0.93,,,-99.99,WeatherLink 5.7,2013-03-23 00:45:00,
2013-03-22 21:00:00,69.4,63.0,29.85,North,0,0.0,1.0,80,1.01,,,-99.99,WeatherLink 5.7,2013-03-23 01:00:00,
2013-03-22 21:15:00,69.3,63.6,29.85,North,0,0.0,1.0,82,0.56,,,-99.99,WeatherLink 5.7,2013-03-23 01:15:00,
2013-03-22 21:30:00,69.1,63.7,29.85,North,0,0.0,4.0,83,0.56,,,-99.99,WeatherLink 5.7,2013-03-23 01:30:00,
2013-03-22 21:45:00,68.8,63.1,29.86,North,0,0.0,3.0,82,0.45,,,-99.99,WeatherLink 5.7,2013-03-23 01:45:00,
2013-03-22 22:00:00,68.3,62.9,29.87,North,-999,0.0,0.0,83,0.36,,,-99.99,WeatherLink 5.7,2013-03-23 02:00:00,
2013-03-22 22:15:00,67.9,62.9,29.88,North,-999,0.0,0.0,84,0.10,,,-99.99,WeatherLink 5.7,2013-03-23 02:15:00,
2013-03-22 22:30:00,67.5,62.5,29.88,North,-999,0.0,0.0,84,0.01,,,-99.99,WeatherLink 5.7,2013-03-23 02:30:00,
2013-03-22 22:45:00,67.0,62.3,29.88,North,-999,0.0,0.0,85,0.00,,,-99.99,WeatherLink 5.7,2013-03-23 02:45:00,
2013-03-22 23:00:00,66.5,61.8,29.88,North,-999,0.0,0.0,85,0.00,,,-99.99,WeatherLink 5.7,2013-03-23 03:00:00,
2013-03-22 23:15:00,66.2,61.9,29.88,North,-999,0.0,0.0,86,0.00,,,-99.99,WeatherLink 5.7,2013-03-23 03:15:00,
2013-03-22 23:30:00,66.0,62.0,29.88,North,-999,0.0,0.0,87,0.00,,,-99.99,WeatherLink 5.7,2013-03-23 03:30:00,
2013-03-22 23:45:00,66.0,62.0,29.88,North,-999,0.0,0.0,87,0.00,,,-99.99,WeatherLink 5.7,2013-03-23 03:45:00,